ASTRA 1N

Last updated on Sat Aug 22 2026 00:02:57 GMT+0000 (Coordinated Universal Time)

1 37775U 11041A 26233.34343111 .00000117 00000+0 00000+0 0 9999 2 37775 0.0651 9.2648 0005433 120.2909 342.9350 1.00269856 45181
UTC large
Height (km)
Speed (km/s)
/
Latitude / Longitude
Inclination (degrees)
Orbital Period (minutes)
Azimuth
Elevation
Range (km)
Doppler Factor

Next 0 passes for location: London (51.5072 / 0.1276)

No passes found over London.
ASTRA 1N